Hourly Data Report for May 12, 2019

MIRAMICHI RCS
NEW BRUNSWICK
Current Station Operator: ECCC - MSC

47°00'34.000" N
65°27'54.000" W
33.00 m
8100989
71744
ACQ

Download Data

Hourly Data (May 2019)
Hourly Data Report for May 12, 2019
TIME
LST
Temp Definition
°C
Dew Point Definition
°C
Rel Hum Definition
%
Precip. Amount Definition
mm

Wind Dir Definition
10's deg

Wind Spd Definition
km/h
Visibility Definition
km
Stn Press Definition
kPa
Hmdx Definition


Wind Chill Definition


Weather Definition


00:00 5.9 -2.2 56 0.0 31 16   100.51     LegendNANA
01:00 5.3 -1.9 59 0.0 30 19   100.50     LegendNANA
02:00 4.8 -1.8 63 0.0 30 15   100.53     LegendNANA
03:00 4.4 -1.7 65 0.0 29 19   100.55     LegendNANA
04:00 3.8 -1.7 67 0.0 30 15   100.61     LegendNANA
05:00 3.4 -1.7 69 0.0 29 14   100.65     LegendNANA
06:00 4.6 -1.7 63 0.0 30 16   100.69     LegendNANA
07:00 6.4 -1.5 57 0.0 31 17   100.74     LegendNANA
08:00 7.8 -1.2 53 0.0 32 18   100.77     LegendNANA
09:00 9.1 -0.6 51 0.0 33 16   100.81     LegendNANA
10:00 10.2 -0.7 47 0.0 36 14   100.84     LegendNANA
11:00 11.0 0.1 47 0.0 36 11   100.88     LegendNANA
12:00 10.6 -0.4 46 0.0 2 14   100.94     LegendNANA
13:00 9.7 1.9 58 0.0 7 23   101.02     LegendNANA
14:00 7.4 1.9 68 0.0 8 22   101.11     LegendNANA
15:00 8.4 2.4 66 0.0 8 17   101.18     LegendNANA
16:00 9.2 2.9 65 0.0 7 19   101.20     LegendNANA
17:00 6.6 1.2 69 0.0 9 21   101.25     LegendNANA
18:00 5.9 0.6 69 0.0 6 21   101.31     LegendNANA
19:00 4.6 0.7 76 0.0 6 16   101.40     LegendNANA
20:00 3.9 1.0 81 0.0 7 18   101.44     LegendNANA
21:00 3.6 0.9 82 0.0 6 12   101.46     LegendNANA
22:00 2.9 0.5 84 0.0 9 11   101.50     LegendNANA
23:00 1.8 -0.3 86 0.0 10 5   101.51     LegendNANA

Notes on Data Quality.

Legend

  • E = Estimated
  • M = Missing
  • NA = Not Available*
  • [empty] = Indicates an unobserved value
Date modified: